[[{"header":{"parameterUnit":"m.s-1","parameterCategory":2,"la1":30.2991,"la2":30.254,"lo1":-89.0895,"lo2":-89.0444,"dy":0.0017,"dx":0.0017,"nx":28,"ny":28,"refTime":"2024-05-25T21:00:00:Z","depth":"0","parameterNumber":2,"parameterNumberName":"U-component_of_CURRENTS"},"data":[0,0,0,0,0,0,0,0,0,0,0,0,0,0,0,0,0,0,0,0,0,0,0,0,0,0,0,0,0,0,0,0,0,0,0,0,0,0,0,0,0,0,0,0,0,0,0,0,0,0,0,0,0,0,0,0,0,0,0.3127,0.3127,0,0.3129,0.3129,0.3128,0.3111,0.3111,0.3111,0.311,0.3103,0.3103,0.3103,0,0,0,0,0,0,0,0,0,0,0,0,0,0.3121,0.3121,0.3127,0.3127,0.3127,0.3129,0.3129,0.3128,0.3111,0.3111,0.3111,0.311,0.3103,0.3103,0.3103,0,0,0,0,0,0,0,0,0,0,0,0,0,0.3122,0.3121,0.3127,0.312,0.312,0.3129,0.3129,0.3128,0.3111,0.3111,0.311,0.311,0.3103,0.3103,0.3103,0.3112,0,0,0.3103,0.3103,0,0,0,0,0,0,0,0,0.3122,0.3122,0.3121,0.3121,0.312,0.3121,0.3124,0.3123,0.3111,0.3112,0.311,0.311,0.311,0.3109,0.3108,0.3112,0.3112,0.3103,0.3103,0.3103,0.3103,0,0,0,0,0,0,0,0.3122,0.3122,0.3125,0.3121,0.3121,0.3122,0.3121,0.3124,0.3112,0.3112,0.3112,0.3115,0.3109,0.3108,0.3107,0.3112,0.3103,0.3103,0.3103,0.3103,0.3178,0.3179,0,0,0,0,0,0,0.3125,0.3121,0.3125,0.3126,0.3122,0.3123,0.3122,0.312,0.3112,0.3111,0.3116,0.3114,0.3108,0.3107,0.3107,0.3159,0.3103,0.3103,0.3103,0.3176,0.3178,0.318,0,0,0,0,0,0,0.3125,0.3125,0.3125,0.3126,0.3126,0.3123,0.3121,0.312,0.3125,0.3115,0.3113,0.3122,0.3107,0.3107,0.3118,0.3157,0.3103,0.3104,0.3173,0.3176,0.3179,0.3237,0,0,0,0,0,0,0.3125,0.3125,0.3128,0.3126,0.3126,0.3143,0.3122,0.312,0.3128,0.3127,0.312,0.3119,0.3107,0.3118,0.3119,0.3156,0.3104,0.3171,0.3175,0.3178,0.3232,0.3241,0.3249,0,0,0,0,0,0.3124,0.3131,0.3128,0.3128,0.3129,0.3144,0.3145,0.314,0.3129,0.314,0.3133,0.3119,0.3142,0.3119,0.3119,0.3158,0.3169,0.3174,0.3178,0.3229,0.3239,0.3249,0,0,0,0,0,0,0.3127,0.313,0.3126,0.3132,0.3143,0.3142,0.3151,0.3147,0.315,0.3148,0.3131,0.313,0.3168,0.3152,0.3127,0.3193,0.3159,0.3163,0.3198,0.3208,0.3216,0.3228,0.3104,0,0,0,0,0,0.313,0.3136,0.3142,0.3148,0.3155,0.3155,0.316,0.316,0.3161,0.3162,0.3157,0.3161,0.3186,0.3184,0.3203,0.322,0.3233,0.325,0.3258,0.3265,0.3278,0.3342,0.3357,0.3194,0.3194,0.3194,0,0,0.313,0.3135,0.3136,0.315,0.3155,0.3173,0.3157,0.3173,0.3192,0.3161,0.3183,0.3195,0.3202,0.3236,0.325,0.3222,0.3317,0.3271,0.3276,0.3285,0.3348,0.3364,0.3378,0.3197,0.3197,0.3196,0,0,0.3137,0.3142,0.315,0.3166,0.3184,0.3191,0.32,0.3208,0.3218,0.3239,0.3239,0.3269,0.3279,0.3301,0.3312,0.3374,0.3371,0.3383,0.3417,0.348,0.3493,0.3506,0.3532,0.3546,0.3371,0.3371,0.3371,0,0.3137,0.3147,0.3157,0.3175,0.3192,0.3203,0.3223,0.3241,0.3252,0.3273,0.3256,0.3317,0.3318,0.3378,0.34,0.3395,0.3416,0.3375,0.349,0.3503,0.3515,0.3538,0.3554,0.3374,0.3374,0.3373,0.3373,0,0.3151,0.3164,0.3176,0.3202,0.3225,0.3247,0.3276,0.3302,0.3314,0.3333,0.3397,0.3406,0.344,0.3454,0.3441,0.3531,0.3515,0.3506,0.3463,0.3535,0.3555,0.357,0.3379,0.3378,0.3377,0.3376,0,0,0.3126,0.3175,0.3175,0.3191,0.3242,0.3256,0.3312,0.3361,0.3397,0.3428,0.3486,0.3531,0.3541,0.3556,0.3558,0.3601,0.3694,0.3585,0.3587,0.3606,0.3816,0.3759,0.3769,0.3708,0.3711,0.3714,0.3791,0,0.313,0.3159,0.3194,0.3229,0.3245,0.3295,0.3343,0.3395,0.344,0.3502,0.3549,0.3606,0.358,0.3604,0.365,0.37,0.3738,0.3673,0.3747,0.3749,0.3688,0.3787,0.3625,0.3678,0.3805,0.3808,0.381,0,0.3121,0.3144,0.3177,0.3236,0.325,0.3284,0.3365,0.3412,0.3517,0.3557,0.3631,0.3673,0.376,0.3724,0.3835,0.3796,0.3813,0.3834,0.3838,0.3778,0.3722,0.3631,0.3699,0.3643,0.3832,0.383,0.3828,0,0.3072,0.3127,0.3151,0.3171,0.3246,0.3282,0.3331,0.3426,0.3483,0.3605,0.3673,0.3764,0.383,0.3885,0.3931,0.3897,0.4048,0.4001,0.396,0.3954,0.3828,0.3806,0.3848,0.4082,0.4081,0.4081,0.4081,0,0.3051,0.3065,0.3128,0.314,0.3181,0.3249,0.3315,0.3383,0.3506,0.3593,0.3697,0.3787,0.3881,0.3973,0.3985,0.4031,0.4093,0.3995,0.399,0.3841,0.382,0.3772,0.3735,0.4084,0.4083,0.4083,0.4082,0,0.2989,0.3031,0.3059,0.3134,0.3157,0.3186,0.3299,0.3353,0.3481,0.3609,0.3662,0.3837,0.3959,0.4033,0.4134,0.41,0.4034,0.4133,0.3936,0.3907,0.378,0.3752,0.3616,0.3526,0.4096,0.4095,0.4095,0,0.2959,0.2966,0.3033,0.3049,0.3085,0.3141,0.3188,0.3319,0.3393,0.363,0.3694,0.3876,0.3972,0.4106,0.4098,0.412,0.4016,0.3969,0.3872,0.3781,0.3747,0.3576,0.3498,0.3719,0.3716,0.3713,0.371,0,0.2903,0.293,0.2953,0.2985,0.3028,0.3072,0.3157,0.3215,0.3392,0.3512,0.3684,0.379,0.3947,0.3922,0.397,0.3951,0.3782,0.3907,0.3878,0.352,0.3273,0.318,0.3643,0.3684,0.3687,0.3689,0.369,0.3691,0.2856,0.2858,0.2889,0.291,0.295,0.2986,0.3002,0.311,0.3212,0.3361,0.3549,0.364,0.3746,0.3792,0.3763,0.3641,0.3606,0.3517,0.3509,0.3359,0.321,0.3607,0.3604,0.3606,0.3608,0.3609,0.3611,0,0.2782,0.2792,0.281,0.2826,0.2822,0.2882,0.296,0.2963,0.303,0.3178,0.329,0.3396,0.3376,0.3437,0.3402,0.3281,0.3099,0.3188,0.2927,0.2889,0.3312,0.3237,0.3077,0.3077,0.3077,0.3077,0.3077,0.3077,0.2746,0.2724,0.2729,0.2684,0.2695,0.2669,0.2691,0.2717,0.2787,0.283,0.2879,0.2982,0.3183,0.3223,0.312,0.3031,0.2837,0.2648,0.2694,0.3029,0.3059,0.3087,0.3011,0.2805,0.2805,0.2123,0.2118,0.2114]},{"header":{"parameterUnit":"m.s-1","parameterCategory":2,"la1":30.2991,"la2":30.254,"lo1":-89.0895,"lo2":-89.0444,"dy":0.0017,"dx":0.0017,"nx":28,"ny":28,"refTime":"2024-05-25T21:00:00:Z","depth":"0","parameterNumber":3,"parameterNumberName":"V-component_of_CURRENTS"},"data":[0,0,0,0,0,0,0,0,0,0,0,0,0,0,0,0,0,0,0,0,0,0,0,0,0,0,0,0,0,0,0,0,0,0,0,0,0,0,0,0,0,0,0,0,0,0,0,0,0,0,0,0,0,0,0,0,0,0,0.0348,0.0348,0,0.0314,0.0313,0.0313,0.0287,0.0287,0.0287,0.0286,0.0228,0.0226,0.0225,0,0,0,0,0,0,0,0,0,0,0,0,0,0.0347,0.0348,0.0348,0.0348,0.0348,0.0314,0.0313,0.0313,0.0287,0.0287,0.0287,0.0286,0.0228,0.0226,0.0225,0,0,0,0,0,0,0,0,0,0,0,0,0,0.0333,0.0348,0.0349,0.0331,0.0329,0.0314,0.0313,0.0313,0.0287,0.0287,0.0286,0.0286,0.0229,0.0227,0.0225,0.0216,0,0,0.0218,0.0217,0,0,0,0,0,0,0,0,0.0334,0.0333,0.0334,0.0332,0.033,0.0305,0.0291,0.028,0.0287,0.0302,0.0286,0.0286,0.0252,0.0248,0.0241,0.0214,0.0211,0.0218,0.0217,0.0216,0.0215,0,0,0,0,0,0,0,0.0335,0.0334,0.0334,0.0334,0.0332,0.031,0.0308,0.0289,0.0278,0.0301,0.0299,0.0297,0.0251,0.0243,0.024,0.021,0.0218,0.0216,0.0215,0.0214,0.0181,0.0182,0,0,0,0,0,0,0.0344,0.0336,0.0335,0.0333,0.0332,0.031,0.0308,0.0313,0.0279,0.0274,0.0297,0.0296,0.0247,0.0242,0.0237,0.0249,0.0216,0.0214,0.0213,0.0181,0.0181,0.0182,0,0,0,0,0,0,0.0344,0.0344,0.0336,0.0333,0.0331,0.0311,0.0316,0.0312,0.0308,0.0276,0.027,0.0297,0.0247,0.024,0.0229,0.0245,0.0213,0.0211,0.018,0.0181,0.0181,0.0256,0,0,0,0,0,0,0.0344,0.0345,0.035,0.0334,0.0332,0.0336,0.0316,0.0312,0.0307,0.0305,0.0274,0.0268,0.0246,0.0233,0.0227,0.0242,0.0209,0.018,0.0181,0.0181,0.0253,0.0259,0.0265,0,0,0,0,0,0.0344,0.0357,0.035,0.035,0.034,0.0337,0.0334,0.0317,0.0308,0.0311,0.0292,0.027,0.0233,0.0232,0.0225,0.0239,0.0179,0.018,0.0181,0.0251,0.0258,0.0264,0,0,0,0,0,0,0.0357,0.0355,0.0348,0.0358,0.0351,0.0333,0.0335,0.0323,0.031,0.0308,0.0276,0.0269,0.0264,0.0239,0.0238,0.023,0.0202,0.0202,0.0257,0.0264,0.0269,0.0287,0.0207,0,0,0,0,0,0.0364,0.0375,0.0363,0.0372,0.0371,0.0354,0.0349,0.034,0.0326,0.032,0.0298,0.0275,0.0262,0.0254,0.0234,0.0232,0.0206,0.0235,0.024,0.0245,0.0255,0.0232,0.0236,0.0185,0.0185,0.0185,0,0,0.037,0.0371,0.0376,0.0376,0.0369,0.038,0.0351,0.0352,0.0363,0.0316,0.0321,0.0293,0.0264,0.0263,0.0258,0.0246,0.0245,0.0247,0.0251,0.0258,0.0233,0.0238,0.0243,0.0185,0.0185,0.0185,0,0,0.0395,0.0392,0.041,0.041,0.0407,0.04,0.0404,0.0389,0.0385,0.0384,0.0355,0.0339,0.0314,0.03,0.029,0.0313,0.0274,0.0303,0.035,0.0328,0.0332,0.0336,0.0308,0.0309,0.0309,0.0309,0.0309,0,0.0402,0.0427,0.0413,0.0432,0.0443,0.0415,0.044,0.0432,0.0415,0.042,0.0396,0.0367,0.0336,0.0344,0.0349,0.0328,0.0305,0.033,0.0337,0.034,0.0342,0.0313,0.0312,0.0313,0.0312,0.0312,0.0311,0,0.0442,0.0461,0.0473,0.0494,0.0501,0.0517,0.051,0.0513,0.0501,0.0491,0.0489,0.0445,0.0432,0.0415,0.0388,0.0394,0.0369,0.0346,0.0324,0.0352,0.0319,0.0317,0.0318,0.0317,0.0315,0.0314,0,0,0.0468,0.0497,0.0503,0.053,0.0539,0.0555,0.0575,0.0591,0.0616,0.0581,0.0611,0.0566,0.0536,0.0522,0.0483,0.0457,0.0445,0.0413,0.041,0.0394,0.0393,0.037,0.0365,0.0424,0.0424,0.0425,0.0363,0,0.0508,0.0562,0.0565,0.0623,0.0654,0.0647,0.0675,0.0683,0.0678,0.0695,0.0649,0.0656,0.0581,0.0583,0.0543,0.0477,0.0444,0.0464,0.0361,0.0358,0.0341,0.0364,0.04,0.0348,0.0361,0.0361,0.036,0,0.0552,0.0586,0.0649,0.0705,0.072,0.0751,0.0803,0.0823,0.0829,0.0826,0.081,0.0775,0.0742,0.0674,0.0567,0.0584,0.0495,0.043,0.0426,0.0379,0.0332,0.0321,0.0344,0.0241,0.0357,0.0357,0.0358,0,0.0593,0.0651,0.0711,0.0728,0.0778,0.0815,0.0845,0.0866,0.0908,0.0917,0.0952,0.0883,0.0878,0.0757,0.0611,0.0595,0.0487,0.0449,0.0341,0.0338,0.0336,0.0333,0.0256,0.037,0.037,0.0371,0.0371,0,0.0642,0.069,0.0739,0.0773,0.0858,0.0873,0.0959,0.0974,0.1022,0.1104,0.1029,0.1078,0.09,0.0817,0.0658,0.0498,0.0519,0.0356,0.0325,0.0362,0.0361,0.0244,0.0156,0.0368,0.0369,0.0369,0.037,0,0.0681,0.0707,0.0782,0.085,0.088,0.0943,0.1045,0.111,0.1141,0.1249,0.1268,0.123,0.113,0.093,0.0741,0.058,0.0346,0.0348,0.0397,0.0373,0.0178,0.0092,-0.0044,-0.0102,0.023,0.0229,0.0228,0,0.0705,0.0746,0.0841,0.0896,0.0934,0.1028,0.1103,0.1163,0.1252,0.1359,0.1431,0.1372,0.1363,0.1057,0.076,0.0478,0.0333,0.0311,0.0282,0.018,0.0062,0.0009,-0.0033,0.0305,0.0305,0.0305,0.0305,0,0.0751,0.0784,0.0848,0.0962,0.1053,0.1163,0.1283,0.1377,0.1483,0.1593,0.1717,0.1721,0.1446,0.1195,0.0787,0.0575,0.0242,0.0301,0.019,0.011,0.0055,-0.0019,0.0323,0.0304,0.0304,0.0304,0.0304,0.0304,0.0787,0.084,0.0927,0.1038,0.1145,0.1298,0.1423,0.1576,0.1754,0.195,0.1923,0.1979,0.1607,0.1072,0.0755,0.0257,0.0235,0.0129,0.0032,-0.0011,-0.0063,0.0273,0.0222,0.0221,0.0221,0.022,0.022,0,0.0831,0.0894,0.0998,0.114,0.1269,0.1325,0.1546,0.1705,0.1953,0.2105,0.2215,0.209,0.1608,0.1104,0.042,0.0071,-0.0056,-0.0113,-0.0166,-0.02,0.0107,0.0118,0.0051,0.0051,0.0051,0.0051,0.0051,0.0051,0.0854,0.0952,0.1008,0.1216,0.1329,0.1543,0.1687,0.1939,0.2115,0.2347,0.2412,0.2416,0.2086,0.0835,0.0042,-0.0165,-0.039,-0.0442,-0.0566,-0.034,-0.0324,-0.0308,-0.0315,-0.0473,-0.0474,-0.0789,-0.0792,-0.0795]}],[{"header":{"parameterUnit":"m.s-1","parameterCategory":2,"la1":30.2991,"la2":30.254,"lo1":-89.0895,"lo2":-89.0444,"dy":0.0017,"dx":0.0017,"nx":28,"ny":28,"refTime":"2024-05-25T21:00:00:Z","depth":"2","parameterNumber":2,"parameterNumberName":"U-component_of_CURRENTS"},"data":[0,0,0,0,0,0,0,0,0,0,0,0,0,0,0,0,0,0,0,0,0,0,0,0,0,0,0,0,0,0,0,0,0,0,0,0,0,0,0,0,0,0,0,0,0,0,0,0,0,0,0,0,0,0,0,0,0,0,0.2879,0.2879,0,0.2882,0.2882,0.2882,0.2876,0.2876,0.2876,0.2876,0.2879,0.2879,0.2879,0,0,0,0,0,0,0,0,0,0,0,0,0,0.2874,0.2874,0.2879,0.2879,0.2879,0.2882,0.2882,0.2882,0.2876,0.2876,0.2876,0.2876,0.2879,0.2879,0.2879,0,0,0,0,0,0,0,0,0,0,0,0,0,0.2874,0.2874,0.2879,0.2879,0.2879,0.2882,0.2882,0.2882,0.2876,0.2876,0.2876,0.2876,0.2879,0.2879,0.2879,0.2879,0,0,0.2879,0.2879,0,0,0,0,0,0,0,0,0.2874,0.2874,0.2878,0.2879,0.2879,0.2881,0.2881,0.2882,0.2876,0.2875,0.2876,0.2876,0.2881,0.2881,0.2878,0.2879,0.2879,0.2879,0.2879,0.2879,0.2879,0,0,0,0,0,0,0,0.2874,0.2874,0.2878,0.2879,0.2879,0.288,0.288,0.2881,0.2876,0.2875,0.2875,0.2879,0.2881,0.2878,0.2878,0.2879,0.2879,0.2879,0.2879,0.2879,0.2948,0.2949,0,0,0,0,0,0,0.2878,0.2874,0.2878,0.2878,0.2879,0.2881,0.288,0.2878,0.2876,0.2876,0.2879,0.2879,0.2878,0.2878,0.2878,0.2933,0.2879,0.2879,0.2879,0.2946,0.2948,0.295,0,0,0,0,0,0,0.2878,0.2878,0.2878,0.2878,0.2879,0.2881,0.2879,0.2878,0.2889,0.2879,0.2879,0.2892,0.2878,0.2878,0.2893,0.2931,0.2879,0.288,0.2944,0.2947,0.2949,0.3008,0,0,0,0,0,0,0.2877,0.2878,0.2882,0.2878,0.2879,0.2895,0.2879,0.2878,0.2892,0.2892,0.289,0.289,0.2878,0.2893,0.2893,0.293,0.288,0.2942,0.2945,0.2948,0.3004,0.3012,0.302,0,0,0,0,0,0.2877,0.2884,0.2882,0.2883,0.2883,0.2896,0.2897,0.2896,0.2893,0.2904,0.2902,0.289,0.2915,0.2894,0.2894,0.2932,0.294,0.2944,0.2948,0.3,0.3011,0.302,0,0,0,0,0,0,0.2882,0.2884,0.2882,0.2888,0.2899,0.2896,0.2907,0.2907,0.2913,0.2915,0.2902,0.2901,0.294,0.2924,0.2902,0.2964,0.2931,0.2935,0.2971,0.298,0.2988,0.3001,0.288,0,0,0,0,0,0.2886,0.2892,0.2896,0.2903,0.2911,0.2912,0.2918,0.2921,0.2924,0.2927,0.2926,0.2932,0.2954,0.2956,0.2972,0.2989,0.3001,0.3018,0.3026,0.3033,0.3045,0.3102,0.3117,0.2963,0.2963,0.2963,0,0,0.2888,0.2892,0.2894,0.2906,0.2912,0.2927,0.2916,0.2934,0.2952,0.2927,0.2952,0.2965,0.2969,0.3003,0.3017,0.2991,0.3082,0.3038,0.3043,0.3052,0.3108,0.3123,0.3136,0.2966,0.2965,0.2965,0,0,0.2896,0.2903,0.291,0.2924,0.2943,0.2949,0.2959,0.2968,0.2981,0.3004,0.3005,0.3037,0.3048,0.3067,0.3075,0.3135,0.3133,0.3144,0.318,0.3235,0.3248,0.326,0.3289,0.3303,0.3134,0.3134,0.3134,0,0.29,0.2907,0.2917,0.2933,0.2948,0.2961,0.2979,0.2997,0.3011,0.3032,0.3022,0.3082,0.3084,0.3138,0.3161,0.3154,0.3176,0.314,0.3246,0.3258,0.3269,0.3295,0.331,0.3138,0.3137,0.3137,0.3137,0,0.2911,0.2924,0.2934,0.2957,0.2978,0.2998,0.3025,0.3054,0.3071,0.309,0.3154,0.3164,0.3199,0.3212,0.3202,0.3286,0.3273,0.326,0.322,0.3288,0.3311,0.3325,0.3142,0.3141,0.314,0.3139,0,0,0.2893,0.2933,0.2935,0.2948,0.2994,0.3006,0.3058,0.3104,0.3141,0.3176,0.3232,0.3278,0.3295,0.3308,0.3311,0.3351,0.3443,0.3339,0.334,0.3364,0.3557,0.3493,0.3502,0.3452,0.3455,0.3457,0.354,0,0.2896,0.2919,0.2948,0.2979,0.2992,0.304,0.3084,0.3134,0.3181,0.3242,0.3288,0.3345,0.3328,0.3356,0.34,0.3446,0.3485,0.3421,0.3491,0.3493,0.3426,0.3518,0.3213,0.3257,0.3553,0.3556,0.3557,0,0.2887,0.2906,0.2933,0.2984,0.2997,0.303,0.3108,0.3152,0.3253,0.3294,0.3368,0.3409,0.3495,0.3465,0.3573,0.3537,0.3557,0.3577,0.358,0.3511,0.3456,0.324,0.3271,0.358,0.3578,0.3577,0.3575,0,0.2844,0.289,0.2911,0.2928,0.2994,0.3032,0.3079,0.317,0.3222,0.3343,0.3406,0.3495,0.3563,0.3616,0.3664,0.3633,0.3775,0.373,0.3687,0.3681,0.343,0.3398,0.3808,0.3808,0.3808,0.3807,0.3807,0,0.2824,0.2836,0.2894,0.2904,0.2944,0.3007,0.3071,0.3138,0.3252,0.3329,0.3433,0.3513,0.3611,0.3698,0.3712,0.3755,0.3816,0.372,0.3714,0.3441,0.341,0.3692,0.3678,0.381,0.381,0.3809,0.3809,0,0.2768,0.2806,0.283,0.2899,0.2922,0.2954,0.3058,0.3108,0.3231,0.3346,0.3397,0.356,0.3678,0.3753,0.3851,0.3817,0.3856,0.3846,0.3513,0.3466,0.3707,0.3694,0.3809,0.3808,0.3807,0.3806,0.3805,0,0.2741,0.2747,0.2808,0.2823,0.2858,0.2915,0.2958,0.308,0.3143,0.3361,0.3414,0.359,0.3676,0.3802,0.3782,0.3804,0.3867,0.3523,0.3409,0.3733,0.3715,0.3704,0.3694,0.3091,0.3085,0.308,0.3075,0,0.2689,0.2715,0.2735,0.2763,0.2804,0.284,0.2919,0.2963,0.3125,0.323,0.3375,0.3471,0.3616,0.351,0.3559,0.3521,0.3496,0.3417,0.386,0.3147,0.3066,0.3045,0.3056,0.3028,0.3033,0.3036,0.3039,0.3041,0.2647,0.2647,0.2672,0.269,0.2727,0.2747,0.2745,0.2838,0.2915,0.3036,0.3215,0.3254,0.3303,0.3225,0.3131,0.3051,0.3292,0.3118,0.313,0.3149,0.3061,0.2983,0.2911,0.2915,0.2919,0.2922,0.2924,0,0.2575,0.2582,0.2595,0.2602,0.2587,0.2651,0.2695,0.2661,0.269,0.2834,0.2923,0.2726,0.2672,0.2713,0.2521,0.2525,0.2455,0.2412,0.2282,0.2334,0.2378,0.2245,0.1882,0.1879,0.1875,0.1872,0,0,0.254,0.2511,0.251,0.245,0.2459,0.2408,0.2404,0.2374,0.241,0.2391,0.2389,0.2601,0.2668,0.2258,0.2198,0.2005,0.2149,0.1922,0.2766,0.2668,0.2708,0.2804,0.2661,0,0,0,0,0]},{"header":{"parameterUnit":"m.s-1","parameterCategory":2,"la1":30.2991,"la2":30.254,"lo1":-89.0895,"lo2":-89.0444,"dy":0.0017,"dx":0.0017,"nx":28,"ny":28,"refTime":"2024-05-25T21:00:00:Z","depth":"2","parameterNumber":3,"parameterNumberName":"V-component_of_CURRENTS"},"data":[0,0,0,0,0,0,0,0,0,0,0,0,0,0,0,0,0,0,0,0,0,0,0,0,0,0,0,0,0,0,0,0,0,0,0,0,0,0,0,0,0,0,0,0,0,0,0,0,0,0,0,0,0,0,0,0,0,0,0.022,0.0219,0,0.0187,0.0186,0.0186,0.0164,0.0164,0.0164,0.0164,0.0109,0.0107,0.0106,0,0,0,0,0,0,0,0,0,0,0,0,0,0.0221,0.0221,0.022,0.0219,0.0219,0.0187,0.0186,0.0186,0.0164,0.0164,0.0164,0.0164,0.0109,0.0107,0.0106,0,0,0,0,0,0,0,0,0,0,0,0,0,0.0207,0.0221,0.022,0.0205,0.0203,0.0187,0.0186,0.0185,0.0164,0.0164,0.0164,0.0164,0.011,0.0108,0.0106,0.0096,0,0,0.0099,0.0098,0,0,0,0,0,0,0,0,0.0208,0.0207,0.0207,0.0206,0.0204,0.018,0.0166,0.0154,0.0164,0.0178,0.0164,0.0164,0.0131,0.0127,0.0121,0.0093,0.0091,0.0099,0.0098,0.0097,0.0096,0,0,0,0,0,0,0,0.0209,0.0208,0.0206,0.0207,0.0205,0.0185,0.0183,0.0164,0.0155,0.0177,0.0175,0.0173,0.013,0.0123,0.0119,0.009,0.0099,0.0097,0.0096,0.0095,0.0065,0.0065,0,0,0,0,0,0,0.0217,0.0209,0.0207,0.0205,0.0206,0.0185,0.0183,0.0187,0.0155,0.0151,0.0173,0.0172,0.0126,0.0122,0.0117,0.0129,0.0097,0.0095,0.0094,0.0064,0.0065,0.0065,0,0,0,0,0,0,0.0217,0.0217,0.0208,0.0206,0.0204,0.0186,0.019,0.0187,0.0184,0.0153,0.0148,0.0175,0.0126,0.012,0.011,0.0126,0.0094,0.0092,0.0064,0.0064,0.0065,0.0136,0,0,0,0,0,0,0.0217,0.0217,0.0223,0.0207,0.0204,0.0208,0.019,0.0186,0.0183,0.0181,0.0153,0.0147,0.0125,0.0114,0.0108,0.0122,0.0091,0.0063,0.0064,0.0065,0.0133,0.0139,0.0144,0,0,0,0,0,0.0217,0.0229,0.0223,0.0223,0.0213,0.0209,0.0206,0.0191,0.0183,0.0188,0.017,0.0148,0.0115,0.0112,0.0106,0.012,0.0063,0.0064,0.0065,0.0131,0.0138,0.0144,0,0,0,0,0,0,0.0231,0.0227,0.0221,0.023,0.0223,0.0206,0.0208,0.0197,0.0186,0.0185,0.0154,0.0148,0.0144,0.0121,0.0119,0.0112,0.0085,0.0085,0.0137,0.0144,0.0149,0.0165,0.0089,0,0,0,0,0,0.0237,0.0247,0.0236,0.0244,0.0243,0.0226,0.0223,0.0214,0.0202,0.0197,0.0176,0.0155,0.0141,0.0135,0.0115,0.0113,0.0087,0.0116,0.0122,0.0127,0.0135,0.011,0.0115,0.0068,0.0068,0.0068,0,0,0.0244,0.0244,0.0248,0.0248,0.0241,0.0252,0.0224,0.0226,0.0237,0.0192,0.0198,0.0172,0.0144,0.0143,0.0139,0.0127,0.0126,0.0128,0.0133,0.0138,0.0112,0.0116,0.012,0.0069,0.0069,0.0069,0,0,0.0267,0.0264,0.0281,0.0281,0.0278,0.0271,0.0276,0.0262,0.0259,0.0259,0.0231,0.0217,0.0194,0.018,0.017,0.0192,0.0154,0.0183,0.0228,0.0204,0.0208,0.0211,0.0184,0.0184,0.0189,0.0189,0.0189,0,0.0276,0.0298,0.0285,0.0302,0.0312,0.0286,0.031,0.0302,0.0287,0.0291,0.0271,0.0243,0.0214,0.022,0.0226,0.0206,0.0184,0.0208,0.0213,0.0215,0.0217,0.0188,0.0187,0.0193,0.0192,0.0192,0.0191,0,0.0312,0.033,0.0342,0.036,0.0367,0.0383,0.0375,0.0379,0.0369,0.0359,0.0357,0.0316,0.0304,0.0288,0.0264,0.0267,0.0244,0.0221,0.02,0.0226,0.0193,0.0191,0.0198,0.0196,0.0195,0.0194,0,0,0.0339,0.0364,0.0371,0.0396,0.0403,0.0419,0.0437,0.0452,0.0476,0.0444,0.047,0.0428,0.0402,0.0388,0.0351,0.0325,0.0312,0.0284,0.0281,0.0264,0.0258,0.0238,0.0233,0.0292,0.0292,0.0292,0.023,0,0.0377,0.0427,0.0428,0.0483,0.0511,0.0505,0.0531,0.0538,0.0534,0.0549,0.0504,0.051,0.0442,0.0445,0.0406,0.0342,0.031,0.0331,0.0229,0.0226,0.021,0.0231,0.0242,0.0188,0.0227,0.0227,0.0227,0,0.0419,0.045,0.0509,0.056,0.0574,0.0604,0.0653,0.0672,0.0675,0.0672,0.0657,0.0621,0.0589,0.0527,0.0423,0.044,0.0356,0.0294,0.0289,0.0246,0.0202,0.0166,0.0182,0.0223,0.0223,0.0223,0.0223,0,0.0459,0.0512,0.0568,0.0584,0.063,0.0666,0.0695,0.0713,0.0752,0.0758,0.0788,0.0722,0.0717,0.0599,0.0463,0.0448,0.0342,0.0305,0.0203,0.02,0.0177,0.0173,0.0228,0.0228,0.0228,0.0228,0.0228,0,0.0506,0.0551,0.0596,0.0628,0.0709,0.0723,0.0805,0.0819,0.0862,0.0934,0.0862,0.0901,0.0736,0.0656,0.0505,0.0353,0.0371,0.0217,0.0188,0.0202,0.02,0.0203,0.0201,0.0226,0.0226,0.0227,0.0227,0,0.0545,0.0567,0.0638,0.0702,0.0731,0.0793,0.0889,0.095,0.0976,0.1072,0.1088,0.1044,0.0946,0.0761,0.058,0.0429,0.0272,0.0208,0.0234,0.0208,0.0132,0.0134,0.0095,0.0094,0.0093,0.0092,0.0091,0,0.0568,0.0607,0.0696,0.0749,0.0786,0.0877,0.0949,0.1003,0.1083,0.1171,0.1233,0.1172,0.1154,0.0866,0.0589,0.0325,0.0279,0.0148,0.0115,0.0146,0.012,0.0124,0.0128,0.0108,0.0107,0.0107,0.0107,0,0.0614,0.0646,0.0705,0.0815,0.0903,0.1007,0.1119,0.1202,0.1294,0.1386,0.1486,0.148,0.1221,0.0961,0.0585,0.0394,0.0188,0.0132,0.0164,0.0144,0.0154,0.013,0.0134,0.0103,0.0103,0.0104,0.0104,0.0104,0.0651,0.0701,0.0783,0.0891,0.0994,0.1135,0.1243,0.1376,0.1531,0.1685,0.1662,0.1654,0.1345,0.0872,0.0539,0.0173,0.0198,0.0054,0.0057,0.006,0.0076,0.0085,0.0024,0.0024,0.0023,0.0023,0.0023,0,0.0695,0.0755,0.0853,0.0987,0.1109,0.1165,0.1357,0.1474,0.1678,0.1798,0.1879,0.1581,0.1282,0.0909,0.0384,0.0082,0.0046,-0.004,-0.001,-0.0004,0.0001,0.0015,-0.0055,-0.0056,-0.0057,-0.0058,0,0,0.0718,0.081,0.0861,0.1057,0.1166,0.1354,0.1476,0.1654,0.1777,0.1901,0.1897,0.1844,0.1397,0.1,0.0576,0.0267,0.0199,0.0191,0.0288,0.038,0.0389,0.0087,0.0119,0,0,0,0,0]}],[{"header":{"parameterUnit":"m.s-1","parameterCategory":2,"la1":30.2991,"la2":30.254,"lo1":-89.0895,"lo2":-89.0444,"dy":0.0017,"dx":0.0017,"nx":28,"ny":28,"refTime":"2024-05-25T21:00:00:Z","depth":"4","parameterNumber":2,"parameterNumberName":"U-component_of_CURRENTS"},"data":[0,0,0,0,0,0,0,0,0,0,0,0,0,0,0,0,0,0,0,0,0,0,0,0,0,0,0,0,0,0,0,0,0,0,0,0,0,0,0,0,0,0,0,0,0,0,0,0,0,0,0,0,0,0,0,0,0,0,0.188,0.188,0,0.1926,0.1926,0.1927,0.1983,0.1984,0.1985,0.1986,0.2057,0.2058,0.2059,0,0,0,0,0,0,0,0,0,0,0,0,0,0.1828,0.1829,0.188,0.1881,0.1881,0.1926,0.1926,0.1927,0.1982,0.1984,0.1985,0.1986,0.2057,0.2058,0.2059,0,0,0,0,0,0,0,0,0,0,0,0,0,0.1858,0.1829,0.188,0.1916,0.192,0.1926,0.1926,0.1927,0.1982,0.1984,0.1985,0.1987,0.2056,0.2058,0.2059,0.2035,0,0,0.2063,0.2064,0,0,0,0,0,0,0,0,0.1856,0.186,0.191,0.1914,0.1918,0.1952,0.1935,0.1965,0.1982,0.1956,0.1986,0.1988,0.2024,0.2028,0.203,0.2039,0.2042,0.2063,0.2064,0.2065,0.2065,0,0,0,0,0,0,0,0.1854,0.1858,0.1896,0.1911,0.1916,0.1926,0.1932,0.194,0.198,0.1959,0.1963,0.1971,0.2027,0.2029,0.2032,0.2043,0.2063,0.2064,0.2065,0.2066,0.2167,0.2169,0,0,0,0,0,0,0.1852,0.1856,0.1895,0.1898,0.1893,0.1926,0.1932,0.1938,0.1979,0.1987,0.197,0.1974,0.2026,0.2031,0.2035,0.2125,0.2065,0.2066,0.2067,0.2165,0.2167,0.2169,0,0,0,0,0,0,0.185,0.1854,0.1893,0.188,0.1886,0.1926,0.1931,0.1938,0.1984,0.1988,0.1997,0.2014,0.2027,0.2033,0.2082,0.2124,0.2067,0.2068,0.2163,0.2166,0.2168,0.2231,0,0,0,0,0,0,0.1848,0.1853,0.1876,0.1879,0.1886,0.1925,0.193,0.1938,0.1985,0.1991,0.2027,0.2033,0.2029,0.208,0.2083,0.2125,0.2069,0.2161,0.2164,0.2168,0.2226,0.2235,0.2243,0,0,0,0,0,0.1846,0.1864,0.1877,0.1883,0.191,0.1927,0.1932,0.1963,0.1986,0.201,0.2039,0.2034,0.2105,0.2082,0.2086,0.2129,0.2159,0.2163,0.2167,0.2223,0.2234,0.2243,0,0,0,0,0,0,0.1856,0.1871,0.1886,0.191,0.1932,0.1938,0.1969,0.1986,0.2026,0.2047,0.2051,0.2059,0.2122,0.2114,0.2089,0.217,0.2134,0.2139,0.2175,0.2185,0.2193,0.2202,0.207,0,0,0,0,0,0.1866,0.1888,0.1901,0.1927,0.1941,0.1963,0.1983,0.2004,0.2028,0.205,0.2074,0.2104,0.2133,0.2152,0.2175,0.2208,0.2217,0.2242,0.225,0.2257,0.2268,0.2319,0.2333,0.2183,0.2183,0.2183,0,0,0.1878,0.1891,0.1905,0.1932,0.1953,0.1975,0.198,0.2022,0.2052,0.205,0.2114,0.214,0.2151,0.2199,0.2226,0.2202,0.2305,0.2262,0.2268,0.2276,0.2325,0.2339,0.2352,0.2186,0.2186,0.2185,0,0,0.1894,0.1925,0.1944,0.1965,0.2005,0.2015,0.2037,0.2068,0.2102,0.2152,0.2168,0.2219,0.2256,0.2274,0.2285,0.2352,0.2353,0.2368,0.2411,0.246,0.2472,0.2484,0.2512,0.2526,0.2365,0.2365,0.2365,0,0.1914,0.1931,0.1955,0.1976,0.2001,0.2038,0.2063,0.2094,0.2142,0.2175,0.2188,0.2276,0.229,0.2344,0.2374,0.2372,0.2396,0.2369,0.2471,0.2482,0.2492,0.2519,0.2533,0.2368,0.2368,0.2367,0.2367,0,0.1926,0.1959,0.1976,0.2013,0.2044,0.2077,0.2114,0.2165,0.2213,0.2242,0.233,0.2357,0.2409,0.2425,0.2422,0.2505,0.2498,0.2481,0.2443,0.2511,0.2535,0.2548,0.2373,0.2372,0.2371,0.237,0,0,0.1914,0.1973,0.1984,0.2008,0.2069,0.2088,0.2155,0.2212,0.2266,0.2331,0.2402,0.2463,0.2499,0.2515,0.2527,0.2568,0.2662,0.2564,0.2565,0.2589,0.2771,0.2587,0.2584,0.2671,0.2674,0.2676,0.2758,0,0.1921,0.1959,0.1994,0.2045,0.2066,0.2129,0.2183,0.2248,0.2315,0.2395,0.2453,0.2529,0.2525,0.2571,0.2615,0.266,0.2701,0.2641,0.2705,0.2707,0.2532,0.2594,0.2685,0.2767,0.277,0.2773,0.2774,0,0.191,0.194,0.1988,0.2057,0.2076,0.2125,0.2224,0.2279,0.2394,0.2452,0.2543,0.2594,0.2688,0.2671,0.2779,0.2748,0.2774,0.2792,0.2795,0.261,0.2547,0.2686,0.2798,0.2796,0.2794,0.2793,0.2791,0,0.1861,0.1931,0.1972,0.1997,0.2083,0.214,0.2202,0.2309,0.2366,0.251,0.2575,0.2679,0.2759,0.2813,0.2866,0.2843,0.297,0.2932,0.2785,0.2773,0.2886,0.2873,0.3007,0.3007,0.3006,0.3006,0.3006,0,0.1827,0.1864,0.1964,0.1984,0.2049,0.2127,0.2216,0.2297,0.2419,0.249,0.2614,0.2681,0.2807,0.2886,0.2907,0.2886,0.3007,0.2805,0.2785,0.2909,0.2899,0.2895,0.2881,0.3009,0.3009,0.3008,0.3007,0,0.1758,0.1824,0.1876,0.1985,0.2027,0.2081,0.2213,0.2266,0.2405,0.251,0.2566,0.2722,0.2824,0.2909,0.3008,0.2921,0.2927,0.289,0.3029,0.3014,0.2686,0.2675,0.2721,0.2715,0.271,0.2706,0.2703,0,0.1721,0.1742,0.1865,0.19,0.1961,0.2053,0.2109,0.2248,0.2301,0.2504,0.2537,0.2702,0.2788,0.2775,0.2878,0.2898,0.2863,0.2834,0.2742,0.2682,0.266,0.2656,0.2651,0.2695,0.2694,0.2693,0.2691,0,0.1647,0.1713,0.1757,0.183,0.19,0.195,0.2048,0.2064,0.2225,0.2382,0.2445,0.2498,0.2607,0.2665,0.2707,0.2713,0.283,0.2782,0.2791,0.2704,0.2652,0.2633,0.2634,0.2674,0.2677,0.2679,0.2679,0,0.1601,0.1614,0.1684,0.1732,0.1809,0.1816,0.1878,0.1936,0.2003,0.2221,0.2244,0.2422,0.2586,0.2572,0.261,0.2603,0.2552,0.2442,0.2468,0.2487,0.2371,0.2267,0.2163,0,0,0,0,0,0.1538,0.1534,0.1573,0.1605,0.1674,0.1716,0.1817,0.1881,0.2043,0.2029,0.2123,0.2212,0.2273,0.2362,0.2308,0.2502,0.256,0.2424,0.2445,0.2581,0.2601,0.2483,0,0,0,0,0,0,0.1493,0.1527,0.1529,0.1489,0.149,0.1539,0.1594,0.1702,0.1693,0.1878,0.1926,0.2073,0.2171,0.2294,0.2271,0.2295,0.2256,0.2537,0.2531,0.257,0.2588,0.2603,0.2489,0,0,0,0,0]},{"header":{"parameterUnit":"m.s-1","parameterCategory":2,"la1":30.2991,"la2":30.254,"lo1":-89.0895,"lo2":-89.0444,"dy":0.0017,"dx":0.0017,"nx":28,"ny":28,"refTime":"2024-05-25T21:00:00:Z","depth":"4","parameterNumber":3,"parameterNumberName":"V-component_of_CURRENTS"},"data":[0,0,0,0,0,0,0,0,0,0,0,0,0,0,0,0,0,0,0,0,0,0,0,0,0,0,0,0,0,0,0,0,0,0,0,0,0,0,0,0,0,0,0,0,0,0,0,0,0,0,0,0,0,0,0,0,0,0,0.0108,0.0108,0,0.0087,0.0086,0.0086,0.0072,0.0072,0.0072,0.0072,0.0031,0.003,0.0029,0,0,0,0,0,0,0,0,0,0,0,0,0,0.0107,0.0107,0.0108,0.0107,0.0107,0.0087,0.0086,0.0086,0.0072,0.0072,0.0072,0.0072,0.0032,0.0031,0.0029,0,0,0,0,0,0,0,0,0,0,0,0,0,0.0098,0.0107,0.0108,0.0098,0.0097,0.0087,0.0086,0.0086,0.0072,0.0072,0.0072,0.0072,0.0032,0.0031,0.0029,0.0022,0,0,0.0025,0.0024,0,0,0,0,0,0,0,0,0.0099,0.0098,0.01,0.0099,0.0098,0.0082,0.0071,0.0064,0.0072,0.0081,0.0072,0.0072,0.0047,0.0044,0.004,0.002,0.0018,0.0024,0.0024,0.0023,0.0022,0,0,0,0,0,0,0,0.0099,0.0099,0.0099,0.0099,0.0098,0.0085,0.0084,0.0069,0.0064,0.0081,0.008,0.0078,0.0046,0.0042,0.0039,0.0018,0.0024,0.0023,0.0022,0.0022,0.0004,0.0004,0,0,0,0,0,0,0.0104,0.01,0.01,0.0099,0.0098,0.0085,0.0084,0.0087,0.0065,0.0062,0.0078,0.0077,0.0045,0.0041,0.0038,0.005,0.0023,0.0021,0.0021,0.0004,0.0004,0.0005,0,0,0,0,0,0,0.0104,0.0105,0.0101,0.0098,0.0097,0.0085,0.0089,0.0087,0.0087,0.0063,0.0059,0.0081,0.0044,0.004,0.0035,0.0048,0.0021,0.0019,0.0003,0.0004,0.0004,0.0061,0,0,0,0,0,0,0.0105,0.0105,0.011,0.0099,0.0097,0.0102,0.0089,0.0086,0.0086,0.0085,0.0064,0.006,0.0044,0.0037,0.0033,0.0045,0.0018,0.0003,0.0003,0.0004,0.0059,0.0064,0.0068,0,0,0,0,0,0.0105,0.0114,0.011,0.011,0.0104,0.0103,0.0101,0.0091,0.0086,0.009,0.0078,0.0061,0.0039,0.0036,0.0031,0.0044,0.0002,0.0003,0.0004,0.0057,0.0063,0.0068,0,0,0,0,0,0,0.0115,0.0113,0.0109,0.0116,0.0113,0.0101,0.0103,0.0096,0.009,0.009,0.0067,0.0062,0.0061,0.0044,0.0041,0.004,0.0018,0.0018,0.0059,0.0065,0.0069,0.008,0.0017,0,0,0,0,0,0.012,0.0128,0.012,0.0127,0.0127,0.0116,0.0114,0.0109,0.0101,0.0098,0.0084,0.007,0.0061,0.0057,0.0043,0.0044,0.002,0.0047,0.0052,0.0056,0.0061,0.0037,0.004,0.0008,0.0008,0.0008,0,0,0.0125,0.0126,0.0129,0.013,0.0126,0.0136,0.0115,0.0118,0.0128,0.0095,0.0102,0.0084,0.0064,0.0066,0.0064,0.0054,0.0052,0.0057,0.0061,0.0064,0.0038,0.0042,0.0044,0.0009,0.0009,0.0008,0,0,0.0143,0.0142,0.0155,0.0156,0.0156,0.0152,0.0156,0.0147,0.0146,0.015,0.0129,0.012,0.0106,0.0096,0.0089,0.0109,0.0076,0.0104,0.014,0.0116,0.0119,0.0121,0.0094,0.0093,0.0109,0.0109,0.011,0,0.015,0.0168,0.0158,0.0172,0.0181,0.0163,0.0183,0.0179,0.0171,0.0175,0.016,0.0143,0.0122,0.0128,0.0135,0.0121,0.01,0.0122,0.0123,0.0124,0.0125,0.0097,0.0096,0.0112,0.0112,0.0112,0.0111,0,0.0177,0.0193,0.0202,0.0218,0.0225,0.0238,0.0236,0.024,0.0235,0.0229,0.0231,0.0201,0.0193,0.0183,0.0165,0.0167,0.0147,0.013,0.0111,0.0132,0.0101,0.0098,0.0116,0.0115,0.0114,0.0114,0,0,0.0195,0.0217,0.0223,0.0244,0.0253,0.0267,0.0284,0.0298,0.0318,0.0297,0.0318,0.029,0.0269,0.026,0.0233,0.0211,0.0195,0.0178,0.0176,0.0156,0.0141,0.0126,0.0121,0.0178,0.0178,0.0178,0.0117,0,0.0223,0.0263,0.0267,0.0313,0.0335,0.0334,0.0358,0.0366,0.0366,0.0379,0.0345,0.0353,0.0301,0.0304,0.0271,0.0219,0.019,0.0213,0.012,0.0118,0.0105,0.0118,0.0177,0.0115,0.0114,0.0114,0.0113,0,0.0253,0.0278,0.0326,0.0372,0.0383,0.0411,0.0453,0.0472,0.0477,0.0476,0.0464,0.0437,0.041,0.0363,0.0273,0.0291,0.022,0.017,0.0166,0.0131,0.0097,0.0088,0.0107,0.0108,0.0108,0.0109,0.0109,0,0.0278,0.0324,0.037,0.0384,0.0426,0.0458,0.0486,0.0505,0.0539,0.0545,0.0567,0.0513,0.0508,0.041,0.0299,0.0289,0.0195,0.0167,0.0083,0.0081,0.0087,0.0085,0.0098,0.0098,0.0098,0.0098,0.0099,0,0.0307,0.0346,0.0391,0.0416,0.0485,0.0502,0.0574,0.0587,0.0625,0.0678,0.0625,0.0646,0.052,0.045,0.0328,0.0201,0.0213,0.0092,0.0067,0.0112,0.0114,0.0084,0.0084,0.0096,0.0097,0.0097,0.0097,0,0.0328,0.0352,0.0412,0.0472,0.05,0.0553,0.0641,0.0691,0.0715,0.0784,0.0796,0.0754,0.0665,0.0523,0.0373,0.0256,0.0125,0.0073,0.0138,0.0116,0.0016,0.0019,-0.0024,-0.0025,-0.0026,-0.0026,-0.0027,0,0.0341,0.0372,0.0456,0.0503,0.0538,0.0619,0.0682,0.0733,0.0792,0.0852,0.0889,0.0836,0.0784,0.0564,0.0396,0.0162,0.0119,0.004,0.0017,0.0026,0.0005,0.0009,0.0013,-0.0028,-0.0029,-0.0029,-0.0029,0,0.0366,0.0398,0.0448,0.0545,0.0624,0.0713,0.0806,0.0854,0.0926,0.095,0.0976,0.0873,0.0772,0.0581,0.0401,0.0228,0.0086,0.0031,0.0031,0.0008,0.002,0.0001,0.0006,-0.0032,-0.0031,-0.0031,-0.0031,0,0.0389,0.0427,0.0499,0.0587,0.0686,0.0785,0.083,0.0909,0.0968,0.1027,0.1033,0.0927,0.0867,0.0616,0.0451,0.028,0.0223,0.0144,0.0137,0.0138,0.0193,0.0231,0.0229,0,0,0,0,0,0.0408,0.0453,0.0535,0.0637,0.0738,0.0801,0.0907,0.0947,0.1014,0.1042,0.1042,0.0949,0.0728,0.0633,0.0461,0.0405,0.0173,0.0192,0.0074,-0.0048,-0.0044,-0.0011,0,0,0,0,0,0,0.0419,0.0491,0.0533,0.0666,0.0743,0.0865,0.0935,0.0982,0.0992,0.103,0.0917,0.0884,0.0664,0.0832,0.0453,0.0403,0.0297,0.0096,0.0092,-0.005,-0.0047,-0.0044,-0.0009,0,0,0,0,0]}]]